Location: Boiro
(42.6475°N, 8.8834°W)
Time: 02:37:21
(UTC+02:00)

UKube-1 - Pass Details

Date: 26 April 2024
Orbit: 583 x 591 km, 98.3° (Epoch: 23 May)

Event Time Altitude Azimuth Distance (km) Brightness Sun altitude
Rises 02:42:45 0° 27° (NNE) 2,834 ? -33.7°
Reaches altitude 10° 02:45:20 10° 43° (NE) 1,925 ? -33.7°
Enters shadow 02:46:00 13° 50° (NE) 1,730 ? -33.7°
